[[{"header":{"parameterUnit":"m.s-1","parameterCategory":1,"la1":30.2992,"la2":30.254,"lo1":-89.0895,"lo2":-89.0443,"dy":0.0025,"dx":0.0025,"nx":19,"ny":19,"refTime":"2026-04-11T09:00:00:Z","depth":0,"parameterNumber":2,"parameterNumberName":"U-component_of_WINDS"},"data":[0,0,0,-3.3264,-3.3265,-3.3293,-3.3293,-3.3339,-3.334,0,0,0,0,0,0,0,0,0,0,0,-3.3261,-3.3262,-3.3264,-3.3265,-3.3293,-3.3293,-3.3339,-3.334,0,0,0,0,0,0,0,0,0,0,0,-3.3261,-3.3262,-3.3262,-3.3265,-3.3293,-3.3293,-3.3339,-3.3314,0,0,0,0,0,0,0,0,0,0,-3.3286,-3.3288,-3.3262,-3.3262,-3.3265,-3.3293,-3.3293,-3.3313,-3.3316,-3.3331,0,-3.3344,0,-3.3343,-3.3343,-3.3343,0,0,0,-3.3261,-3.3285,-3.3288,-3.3262,-3.3266,-3.3293,-3.3279,-3.3314,-3.3318,-3.3335,-3.3345,-3.3346,-3.3344,-3.3344,-3.3344,-3.3441,-3.3442,0,0,-3.326,-3.3269,-3.3286,-3.3291,-3.3286,-3.3278,-3.328,-3.3316,-3.3328,-3.3345,-3.3347,-3.3344,-3.3344,-3.3344,-3.3441,-3.3442,0,0,0,-3.3258,-3.3268,-3.327,-3.3289,-3.3293,-3.3279,-3.3281,-3.3327,-3.3327,-3.3348,-3.3345,-3.3344,-3.3345,-3.344,-3.3441,-3.3481,0,0,0,-3.3257,-3.3267,-3.3269,-3.3276,-3.3293,-3.331,-3.3291,-3.3324,-3.3328,-3.3345,-3.3344,-3.3345,-3.3439,-3.3441,-3.3478,-3.3498,0,0,0,-3.3258,-3.3267,-3.3273,-3.3276,-3.3288,-3.3309,-3.3311,-3.3325,-3.3326,-3.3343,-3.3346,-3.3439,-3.344,-3.3476,-3.3494,-3.3526,0,0,0,-3.3262,-3.3308,-3.3274,-3.3325,-3.3288,-3.3334,-3.331,-3.3344,-3.3364,-3.3345,-3.3439,-3.3441,-3.3475,-3.3492,-3.3524,-3.3554,-3.3568,0,0,-3.3325,-3.3316,-3.3346,-3.3316,-3.337,-3.3329,-3.339,-3.3399,-3.3392,-3.3426,-3.3428,-3.3479,-3.3494,-3.3526,-3.3644,-3.3655,0,0,0,-3.3369,-3.339,-3.3403,-3.3422,-3.343,-3.3439,-3.3438,-3.3442,-3.347,-3.3411,-3.35,-3.3508,-3.3527,-3.3541,-3.355,-3.3565,-3.3448,-3.3448,-3.3448,-3.3472,-3.3461,-3.351,-3.3503,-3.3522,-3.3522,-3.3537,-3.3542,-3.3525,-3.3547,-3.3556,-3.3629,-3.3646,-3.3653,-3.3669,-3.3572,-3.3573,-3.3573,-3.3573,-3.3564,-3.3592,-3.3571,-3.361,-3.3599,-3.3632,-3.3635,-3.3623,-3.3652,-3.3621,-3.3636,-3.3601,-3.3665,-3.3678,-3.3576,-3.3575,-3.3575,-3.3575,-3.3574,-3.3629,-3.364,-3.3645,-3.3673,-3.3696,-3.3689,-3.3719,-3.3708,-3.3699,-3.3714,-3.3723,-3.3722,-3.372,-3.372,-3.372,-3.372,-3.372,-3.3721,-3.3721,-3.3693,-3.3697,-3.3723,-3.3738,-3.375,-3.3764,-3.3767,-3.3779,-3.3789,-3.3779,-3.3779,-3.3761,-3.3674,-3.3651,-3.3725,-3.3724,-3.3723,-3.3723,-3.3723,-3.3788,-3.3766,-3.3806,-3.3818,-3.3835,-3.3859,-3.3847,-3.3872,-3.3881,-3.3896,-3.3876,-3.3814,-3.3803,-3.3795,-3.3777,-3.3878,-3.3878,-3.3878,-3.3878,-3.3842,-3.3836,-3.3876,-3.3896,-3.3915,-3.3908,-3.3956,-3.3959,-3.3959,-3.3964,-3.3949,-3.3924,-3.3917,-3.391,-3.39,-3.3883,-3.4009,-3.4009,-3.4009,-3.3899,-3.3895,-3.3936,-3.3936,-3.395,-3.3962,-3.4007,-3.4032,-3.4028,-3.4014,-3.3968,-3.3963,-3.3922,-3.391,-3.3892,-3.3877,-3.3844,0,0]},{"header":{"parameterUnit":"m.s-1","parameterCategory":1,"la1":30.2992,"la2":30.254,"lo1":-89.0895,"lo2":-89.0443,"dy":0.0025,"dx":0.0025,"nx":19,"ny":19,"refTime":"2026-04-11T09:00:00:Z","depth":0,"parameterNumber":3,"parameterNumberName":"V-component_of_WINDS"},"data":[0,0,0,3.3751,3.3749,3.3659,3.3658,3.3532,3.3531,0,0,0,0,0,0,0,0,0,0,0,3.3773,3.3772,3.3751,3.3748,3.3659,3.3658,3.3533,3.3531,0,0,0,0,0,0,0,0,0,0,0,3.3773,3.3772,3.3771,3.3748,3.3659,3.3658,3.3533,3.3604,0,0,0,0,0,0,0,0,0,0,3.3693,3.3709,3.3772,3.3771,3.3747,3.3659,3.3658,3.3608,3.36,3.3569,0,3.3543,0,3.3535,3.3522,3.3522,0,0,0,3.3751,3.3716,3.3696,3.377,3.3747,3.3659,3.37,3.3603,3.3594,3.3559,3.3541,3.3537,3.3533,3.3522,3.3521,3.3342,3.3341,0,0,3.3756,3.3753,3.3703,3.369,3.3706,3.3703,3.3697,3.3598,3.3578,3.3541,3.3534,3.3531,3.3521,3.352,3.3343,3.3342,0,0,0,3.3768,3.3757,3.374,3.3695,3.368,3.37,3.3693,3.3582,3.3577,3.3533,3.353,3.352,3.3518,3.3344,3.3343,3.3294,0,0,0,3.3772,3.3764,3.3742,3.3739,3.3682,3.363,3.368,3.3584,3.3573,3.353,3.352,3.3517,3.3345,3.3343,3.3297,3.327,0,0,0,3.378,3.3765,3.3751,3.3739,3.3701,3.3632,3.3621,3.3582,3.3571,3.3522,3.3517,3.3346,3.3344,3.33,3.3276,3.3223,0,0,0,3.3787,3.3706,3.375,3.3658,3.3701,3.3603,3.3622,3.3548,3.35,3.3519,3.3345,3.3343,3.3301,3.3279,3.3227,3.3179,3.3159,0,0,3.3684,3.3694,3.364,3.3677,3.3571,3.3617,3.3503,3.346,3.3457,3.338,3.3376,3.3296,3.3276,3.3224,3.3047,3.3031,0,0,0,3.3606,3.3568,3.354,3.3496,3.3464,3.3433,3.3409,3.3393,3.3329,3.3418,3.3263,3.3251,3.3221,3.3198,3.3184,3.3158,3.3332,3.3332,3.3333,3.3455,3.3457,3.3369,3.3361,3.3317,3.3294,3.3259,3.3234,3.3246,3.321,3.3187,3.308,3.3053,3.3043,3.3016,3.3162,3.3162,3.3162,3.3161,3.3303,3.3249,3.3271,3.3193,3.3196,3.313,3.3104,3.3116,3.3054,3.3097,3.307,3.3117,3.3025,3.3002,3.3158,3.3158,3.3159,3.3159,3.316,3.3204,3.3179,3.3163,3.3101,3.3052,3.3045,3.2986,3.2989,3.2992,3.2966,3.2942,3.2943,3.2944,3.2954,3.2954,3.2954,3.2953,3.2953,3.2953,3.3108,3.3092,3.3042,3.3002,3.2975,3.294,3.2917,3.2889,3.2859,3.2867,3.2866,3.2883,3.3016,3.305,3.2947,3.2948,3.2949,3.2949,3.295,3.2953,3.299,3.2913,3.2886,3.284,3.2791,3.2798,3.2742,3.2719,3.269,3.2713,3.2811,3.2821,3.2831,3.2859,3.2713,3.2713,3.2713,3.2713,3.287,3.2877,3.28,3.2757,3.2715,3.2713,3.2625,3.2607,3.2592,3.2579,3.26,3.2637,3.2648,3.2652,3.2666,3.2692,3.2507,3.2507,3.2506,3.2776,3.2778,3.2704,3.2693,3.2657,3.2626,3.2544,3.2492,3.2483,3.2498,3.2568,3.2577,3.2637,3.2656,3.2672,3.2695,3.2742,0,0]}]]